• In Uzbekistan
  • List of Countries
  • For 7 days
  • Water Temperature
  • Satellite Maps
  • Weather Map
  • Weather Widgets
  • user-avatar
    Login

    Hourly Weather Batumi

    Today, 17 January, Wednesday

    Time Temperature Precipitation Wind Pressure Humidity
    00:00 +4°C° 0 mm 4 mps 765 mmHg 61%
    01:00 +4°C° 0 mm 4 mps 765 mmHg 62%
    02:00 +4°C° 0 mm 4 mps 764 mmHg 62%
    03:00 +6°C° 0 mm 4 mps 763 mmHg 62%
    04:00 +5°C° 0.1 mm 4 mps 763 mmHg 65%
    05:00 +5°C° 0.1 mm 4 mps 763 mmHg 68%
    06:00 +5°C° 0.1 mm 4 mps 763 mmHg 71%
    07:00 +5°C° 0.1 mm 4 mps 763 mmHg 71%
    08:00 +6°C° 0.1 mm 4 mps 763 mmHg 71%
    09:00 +6°C° 0.1 mm 4 mps 762 mmHg 72%
    10:00 +8°C° 0.1 mm 3 mps 762 mmHg 69%
    11:00 +9°C° 0.1 mm 3 mps 761 mmHg 66%
    12:00 +10°C° 0.1 mm 3 mps 761 mmHg 63%
    13:00 +10°C° 0 mm 3 mps 761 mmHg 63%
    14:00 +10°C° 0 mm 3 mps 760 mmHg 62%
    15:00 +11°C° 0 mm 3 mps 760 mmHg 62%
    16:00 +10°C° 0.1 mm 3 mps 760 mmHg 66%
    17:00 +9°C° 0.1 mm 3 mps 760 mmHg 70%
    18:00 +7°C° 0.1 mm 4 mps 760 mmHg 74%
    19:00 +7°C° 0.2 mm 4 mps 760 mmHg 75%
    20:00 +7°C° 0.2 mm 4 mps 759 mmHg 75%
    21:00 +6°C° 0.2 mm 4 mps 759 mmHg 76%
    22:00 +6°C° 0.2 mm 4 mps 759 mmHg 76%
    23:00 +6°C° 0.2 mm 4 mps 758 mmHg 76%

    Tomorrow, 18 January, Thursday

    Time Temperature Precipitation Wind Pressure Humidity
    00:00 +6°C° 0.2 mm 4 mps 758 mmHg 76%
    01:00 +6°C° 0.1 mm 4 mps 758 mmHg 75%
    02:00 +6°C° 0.1 mm 4 mps 758 mmHg 74%
    03:00 +6°C° 0.1 mm 5 mps 757 mmHg 73%
    04:00 +6°C° 0 mm 5 mps 757 mmHg 72%
    05:00 +6°C° 0 mm 5 mps 757 mmHg 72%
    06:00 +5°C° 0 mm 5 mps 756 mmHg 71%
    07:00 +6°C° 0 mm 5 mps 756 mmHg 70%
    08:00 +7°C° 0 mm 6 mps 755 mmHg 69%
    09:00 +7°C° 0 mm 6 mps 755 mmHg 68%
    10:00 +9°C° 0 mm 6 mps 754 mmHg 65%
    11:00 +10°C° 0 mm 6 mps 752 mmHg 63%
    12:00 +13°C° 0 mm 6 mps 751 mmHg 61%
    13:00 +13°C° 0.1 mm 6 mps 751 mmHg 63%
    14:00 +13°C° 0.1 mm 6 mps 750 mmHg 66%
    15:00 +13°C° 0.1 mm 6 mps 749 mmHg 68%
    16:00 +11°C° 0.3 mm 6 mps 749 mmHg 70%
    17:00 +11°C° 0.3 mm 7 mps 749 mmHg 73%
    18:00 +10°C° 0.3 mm 7 mps 749 mmHg 75%
    19:00 +10°C° 0.2 mm 7 mps 749 mmHg 75%
    20:00 +10°C° 0.2 mm 6 mps 749 mmHg 75%
    21:00 +10°C° 0.2 mm 6 mps 749 mmHg 75%
    22:00 +9°C° 0.7 mm 6 mps 749 mmHg 80%
    23:00 +9°C° 0.7 mm 6 mps 750 mmHg 84%

    Day after tomorrow, 19 January, Friday

    Time Temperature Precipitation Wind Pressure Humidity
    00:00 +8°C° 0.7 mm 6 mps 750 mmHg 89%
    01:00 +8°C° 2.9 mm 6 mps 751 mmHg 91%
    02:00 +7°C° 2.9 mm 6 mps 752 mmHg 93%
    03:00 +7°C° 2.9 mm 6 mps 753 mmHg 96%
    04:00 +7°C° 2.2 mm 5 mps 753 mmHg 95%
    05:00 +6°C° 2.2 mm 5 mps 754 mmHg 95%
    06:00 +6°C° 2.2 mm 5 mps 755 mmHg 95%
    07:00 +6°C° 1.9 mm 5 mps 756 mmHg 94%
    08:00 +5°C° 1.9 mm 5 mps 757 mmHg 94%
    09:00 +5°C° 1.9 mm 5 mps 758 mmHg 94%
    10:00 +5°C° 1.3 mm 4 mps 759 mmHg 94%
    11:00 +5°C° 1.3 mm 4 mps 760 mmHg 93%
    12:00 +5°C° 1.3 mm 4 mps 760 mmHg 93%
    13:00 +5°C° 0.9 mm 4 mps 761 mmHg 92%
    14:00 +6°C° 0.9 mm 4 mps 761 mmHg 92%
    15:00 +6°C° 0.9 mm 4 mps 762 mmHg 92%
    16:00 +5°C° 0.6 mm 4 mps 763 mmHg 92%
    17:00 +5°C° 0.6 mm 3 mps 764 mmHg 92%
    18:00 +4°C° 0.6 mm 3 mps 764 mmHg 93%
    19:00 +4°C° 0.2 mm 3 mps 765 mmHg 92%
    20:00 +4°C° 0.2 mm 3 mps 766 mmHg 91%
    21:00 +5°C° 0.2 mm 2 mps 766 mmHg 91%
    22:00 +5°C° 0.1 mm 2 mps 767 mmHg 90%
    23:00 +4°C° 0.1 mm 2 mps 767 mmHg 89%

    20 January, Saturday

    Time Temperature Precipitation Wind Pressure Humidity
    00:00 +4°C° 0.1 mm 2 mps 767 mmHg 88%
    01:00 +4°C° 0 mm 2 mps 768 mmHg 87%
    02:00 +3°C° 0 mm 2 mps 768 mmHg 85%
    03:00 +4°C° 0 mm 1 mps 768 mmHg 84%
    04:00 +3°C° 0 mm 2 mps 768 mmHg 82%
    05:00 +3°C° 0 mm 2 mps 768 mmHg 81%
    06:00 +1°C° 0 mm 3 mps 768 mmHg 80%
    07:00 +2°C° 0 mm 3 mps 768 mmHg 78%
    08:00 +3°C° 0 mm 3 mps 768 mmHg 77%
    09:00 +4°C° 0 mm 4 mps 768 mmHg 75%
    10:00 +6°C° 0 mm 4 mps 767 mmHg 77%
    11:00 +8°C° 0 mm 4 mps 767 mmHg 79%
    12:00 +11°C° 0 mm 4 mps 766 mmHg 80%
    13:00 +11°C° 0 mm 4 mps 765 mmHg 81%
    14:00 +11°C° 0 mm 4 mps 765 mmHg 82%
    15:00 +12°C° 0 mm 4 mps 764 mmHg 82%
    16:00 +10°C° 0 mm 4 mps 765 mmHg 78%
    17:00 +8°C° 0 mm 4 mps 765 mmHg 73%
    18:00 +6°C° 0 mm 4 mps 766 mmHg 69%
    19:00 +6°C° 0 mm 4 mps 766 mmHg 65%
    20:00 +5°C° 0 mm 4 mps 766 mmHg 61%
    21:00 +5°C° 0 mm 4 mps 767 mmHg 57%
    22:00 +5°C° 0 mm 4 mps 767 mmHg 56%
    23:00 +5°C° 0 mm 4 mps 767 mmHg 56%

    21 January, Sunday

    Time Temperature Precipitation Wind Pressure Humidity
    00:00 +5°C° 0 mm 4 mps 767 mmHg 55%
    01:00 +5°C° 0 mm 5 mps 767 mmHg 55%
    02:00 +5°C° 0 mm 5 mps 767 mmHg 55%
    03:00 +5°C° 0 mm 5 mps 767 mmHg 55%
    04:00 +5°C° 0 mm 5 mps 767 mmHg 56%
    05:00 +5°C° 0 mm 5 mps 767 mmHg 56%
    06:00 +5°C° 0 mm 5 mps 767 mmHg 56%
    07:00 +5°C° 0 mm 5 mps 767 mmHg 58%
    08:00 +6°C° 0 mm 4 mps 766 mmHg 59%
    09:00 +7°C° 0 mm 4 mps 766 mmHg 60%
    10:00 +8°C° 0 mm 4 mps 766 mmHg 64%
    11:00 +11°C° 0 mm 4 mps 765 mmHg 67%
    12:00 +13°C° 0 mm 3 mps 764 mmHg 71%
    13:00 +13°C° 0 mm 3 mps 764 mmHg 72%
    14:00 +13°C° 0 mm 3 mps 763 mmHg 74%
    15:00 +13°C° 0 mm 3 mps 763 mmHg 75%
    16:00 +12°C° 0 mm 3 mps 763 mmHg 72%
    17:00 +10°C° 0 mm 3 mps 764 mmHg 69%
    18:00 +9°C° 0 mm 3 mps 764 mmHg 66%
    19:00 +8°C° 0 mm 3 mps 764 mmHg 64%
    20:00 +8°C° 0 mm 3 mps 764 mmHg 62%
    21:00 +8°C° 0 mm 3 mps 764 mmHg 59%
    22:00 +6°C° 0 mm 4 mps 764 mmHg 59%
    23:00 +6°C° 0 mm 4 mps 763 mmHg 59%

    22 January, Monday

    Time Temperature Precipitation Wind Pressure Humidity
    00:00 +6°C° 0 mm 4 mps 763 mmHg 59%
    01:00 +6°C° 0 mm 4 mps 762 mmHg 59%
    02:00 +6°C° 0 mm 4 mps 762 mmHg 59%
    03:00 +7°C° 0 mm 4 mps 761 mmHg 60%
    04:00 +7°C° 0 mm 4 mps 761 mmHg 60%
    05:00 +7°C° 0 mm 4 mps 760 mmHg 60%
    06:00 +7°C° 0 mm 4 mps 759 mmHg 60%
    07:00 +7°C° 0 mm 4 mps 759 mmHg 60%
    08:00 +8°C° 0 mm 4 mps 759 mmHg 60%
    09:00 +8°C° 0 mm 4 mps 759 mmHg 60%
    10:00 +11°C° 0 mm 3 mps 758 mmHg 62%
    11:00 +12°C° 0 mm 3 mps 757 mmHg 63%
    12:00 +13°C° 0 mm 3 mps 757 mmHg 64%
    13:00 +13°C° 0 mm 3 mps 756 mmHg 65%
    14:00 +13°C° 0 mm 3 mps 756 mmHg 66%
    15:00 +13°C° 0 mm 3 mps 756 mmHg 67%
    16:00 +12°C° 0 mm 3 mps 756 mmHg 67%
    17:00 +11°C° 0 mm 3 mps 757 mmHg 67%
    18:00 +10°C° 0 mm 3 mps 757 mmHg 67%
    19:00 +9°C° 0 mm 3 mps 758 mmHg 67%
    20:00 +9°C° 0 mm 3 mps 758 mmHg 67%
    21:00 +8°C° 0 mm 4 mps 758 mmHg 67%
    22:00 +7°C° 0 mm 4 mps 758 mmHg 67%
    23:00 +7°C° 0 mm 4 mps 759 mmHg 68%
    Show more